#timestamp,LO_Frequency,Hit,StdDev 
1682031615.9,286046999.5,N
1682031635.7,286047006.5,N
1682031655.5,286047013.5,N
1682031675.4,286047010.8,N
1682031695.2,286047005.9,N
1682031715.1,286046999.4,N
1682031716.0,286046999.4,N
1682031735.8,286047000.5,N
1682031755.7,286046997.4,N
1682031775.5,286047005.5,N
1682031795.3,286046998.6,N
1682031815.2,286046991.9,N
1682031835.9,286046995.6,N
1682031855.7,286046999.8,N
1682031875.6,286047002.4,N
1682031895.4,286047003.7,N
1682031915.2,286047010.5,N
1682031935.1,286047008.0,N
1682031936.0,286047008.0,N
1682031955.8,286047009.4,N
1682031975.7,286047013.8,N
1682031995.5,286047012.7,N
1682032015.3,286047017.6,N
1682032035.2,286047017.2,N
1682032055.0,286047006.2,N
1682032055.9,286047006.2,N
1682032075.7,286047003.2,N
1682032095.6,286046999.2,N
1682032115.4,286046994.0,N
1682032135.3,286046997.1,N
1682032155.1,286046994.4,N
1682032156.0,286046994.4,N
1682032175.8,286046987.1,N
1682032225.7,286046984.7,E
1682032235.6,286046992.1,N
1682032255.5,286047010.2,P
1682032275.3,286047004.6,N
1682032295.1,286047000.6,N
1682032315.9,286047005.6,N
1682032335.7,286047010.9,N
1682032355.6,286047012.1,N
1682032375.4,286047009.3,N
1682032395.2,286047012.5,N
1682032415.1,286047016.6,N
1682032416.0,286047016.6,N
1682032435.8,286047018.8,N
1682032455.6,286047012.6,N
1682032475.5,286047012.0,N
1682032495.3,286047007.3,N
1682032515.2,286047003.0,N
1682032535.9,286047005.9,N
1682032555.7,286047009.6,N
1682032575.6,286047008.4,N
1682032595.4,286047006.5,N
1682032615.2,286047015.0,N
1682032635.1,286047015.9,N
1682032636.0,286047015.9,N
1682032655.8,286047008.3,N
1682032675.7,286047018.2,Y
1682032695.5,286047007.2,P
1682032715.3,286046997.5,N
1682032735.2,286046992.3,N
1682032755.0,286046998.2,N
1682032755.9,286046998.2,N
1682032775.7,286046998.6,N
1682032795.6,286047003.9,N
1682032815.4,286047006.4,N
1682032835.3,286047007.6,N
1682032855.1,286047013.7,N
1682032856.0,286047013.7,N
1682032875.8,286047010.0,N
1682032895.7,286047009.5,N
1682032915.5,286047014.3,N
1682032935.3,286047019.8,N
1682032955.2,286047027.8,Y
1682032975.0,286047016.1,P
1682032975.9,286047016.1,P
1682032995.8,286047016.6,P
1682033015.6,286047009.4,N
1682033035.4,286047006.2,N
1682033055.3,286047006.1,N
1682033075.1,286047007.0,N
1682033095.9,286047006.5,N
1682033115.7,286047011.3,N
1682033135.5,286047011.0,N
1682033155.4,286047013.7,Y
1682033175.2,286047004.1,P
1682033195.0,286046998.7,N
1682033195.9,286046998.7,N
1682033215.8,286046994.4,N
1682033235.6,286046994.2,N
1682033255.5,286046996.3,N
1682033275.3,286047000.4,N
1682033295.1,286047004.1,N
1682033315.9,286047000.9,N
1682033335.7,286046998.4,N
1682033355.5,286046993.6,N
1682033375.4,286046994.6,N
1682033395.2,286046991.9,N
1682033415.1,286046993.7,N
1682033416.0,286046993.7,N
1682033435.8,286046996.7,N
1682033455.6,286046999.5,N
1682033475.5,286046995.5,N
1682033495.3,286046997.5,N
1682033515.1,286046997.1,N
1682033535.9,286046997.8,N
1682033555.7,286046999.4,N
1682033575.6,286047001.1,N
1682033595.4,286047004.0,N
1682033615.2,286047012.0,N
1682033635.1,286047005.6,N
1682033636.0,286047005.6,N
1682033655.8,286047006.6,N
1682033675.6,286047005.5,N
1682033695.5,286047003.4,N
1682033715.3,286047004.3,N
1682033735.2,286047003.4,N
1682033755.9,286047000.9,N
1682033775.7,286046998.4,N
1682033795.6,286046997.5,N
1682033815.4,286046994.3,N
1682033835.2,286046996.8,N
1682033855.1,286046992.2,N
1682033856.0,286046992.2,N
1682033875.8,286046990.9,N
1682033895.7,286046990.1,N
1682033915.5,286046992.7,N
1682033935.3,286046992.0,N
1682033955.2,286046998.1,N
1682033975.9,286047002.3,N
1682033995.7,286046999.2,N
1682034015.6,286046996.7,N
1682034035.4,286046998.0,N
1682034055.3,286046994.1,N
1682034075.1,286046995.3,N
1682034076.0,286046995.3,N
1682034095.8,286046997.8,N
1682034115.7,286046993.0,N
1682034135.5,286046986.1,N
1682034155.4,286046982.4,Y
1682034175.2,286046982.4,P
1682034195.0,286046981.5,N
1682034195.9,286046981.5,N
1682034215.8,286046987.2,N
1682034235.6,286046985.7,N
1682034255.4,286046989.0,N
1682034275.3,286046993.2,N
1682034295.1,286046996.4,N
1682034315.9,286047000.1,N
1682034335.7,286047005.9,N
1682034355.5,286047010.6,N
1682034375.4,286047012.3,N
1682034395.2,286047001.8,N
1682034415.0,286047002.5,N
1682034415.9,286047002.5,N
1682034435.8,286046997.4,N
1682034455.6,286046992.3,N
1682034475.5,286046994.5,N
1682034495.3,286046991.4,N
1682034515.1,286046992.9,N
1682034535.9,286046996.4,N
1682034555.7,286046990.6,N
1682034575.5,286046985.3,N
1682034595.4,286046981.4,N
1682034615.2,286046983.1,N
1682034635.1,286046989.7,N
1682034636.0,286046989.7,N
1682034655.8,286046993.0,N
1682034675.6,286046999.4,N
1682034695.5,286046994.3,N
1682034715.3,286046995.5,N
1682034735.1,286046995.9,N
1682034755.9,286046991.3,N
1682034775.7,286046986.9,N
1682034795.6,286046987.6,N
1682034815.4,286046989.6,N
1682034835.2,286046985.8,N
1682034855.1,286046992.2,N
1682034856.0,286046992.2,N
1682034875.8,286046989.2,N
1682034895.6,286046990.1,N
1682034915.5,286046991.7,N
1682034935.3,286046995.7,N
1682034955.2,286046993.7,N
1682034975.9,286046992.1,N
1682034995.7,286046991.7,N
1682035015.6,286046994.7,N
1682035035.4,286046990.7,N
1682035055.2,286046995.7,N
1682035075.1,286047004.9,N
1682035076.0,286047004.9,N
1682035095.8,286047002.1,N
1682035115.7,286047004.7,N
1682035135.5,286047003.7,N
1682035155.3,286046998.3,N
1682035175.2,286047000.4,N
1682035195.0,286046998.3,N
1682035195.9,286046998.3,N
